KJ4JWC Weather Reports


time (UTC)temp
C
wind
direction
speed
KPH
gust
KPH
rain 1hr
cm
rain 24hr
cm
rain mn
cm
humidity
%
barometer
mb
20260510184155 29 113 4.8 6.4 0.00 0.00 0.00 30 1008.0
20260510183654 28 113 1.6 3.2 0.00 0.00 0.00 28 1008.0
20260510183155 28 135 3.2 3.2 0.00 0.00 0.00 32 1008.0
20260510182655 28 135 4.8 8.0 0.00 0.00 0.00 28 1008.0
20260510182154 28 113 0.0 1.6 0.00 0.00 0.00 32 1009.0
20260510181654 28 135 1.6 3.2 0.00 0.00 0.00 34 1009.0
20260510181155 28 113 1.6 3.2 0.00 0.00 0.00 29 1009.0
20260510180655 27 113 1.6 3.2 0.00 0.00 0.00 30 1009.0
20260510180156 27 113 1.6 3.2 0.00 0.00 0.00 30 1009.0
20260510175656 28 113 0.0 1.6 0.00 0.00 0.00 34 1009.0
20260510175156 28 135 4.8 4.8 0.00 0.00 0.00 31 1009.0
20260510174654 28 135 3.2 3.2 0.00 0.00 0.00 28 1009.0
20260510174155 28 113 3.2 3.2 0.00 0.00 0.00 30 1009.0
20260510173654 28 135 0.0 1.6 0.00 0.00 0.00 31 1009.0
20260510173154 28 135 4.8 4.8 0.00 0.00 0.00 30 1009.0
20260510172654 28 135 1.6 3.2 0.00 0.00 0.00 30 1009.0
20260510172155 28 113 1.6 3.2 0.00 0.00 0.00 29 1009.0
20260510171657 28 135 0.0 1.6 0.00 0.00 0.00 32 1009.0
20260510171155 27 113 1.6 3.2 0.00 0.00 0.00 29 1009.0
20260510170656 27 135 3.2 3.2 0.00 0.00 0.00 31 1009.0
20260510170156 27 113 0.0 3.2 0.00 0.00 0.00 35 1009.0
20260510165656 26 113 1.6 1.6 0.00 0.00 0.00 33 1009.0
20260510165155 26 113 3.2 4.8 0.00 0.00 0.00 32 1009.0
20260510164654 27 113 3.2 3.2 0.00 0.00 0.00 34 1009.0
20260510164155 27 113 3.2 3.2 0.00 0.00 0.00 33 1009.0
20260510163657 27 135 0.0 1.6 0.00 0.00 0.00 36 1009.0
20260510163156 26 113 3.2 3.2 0.00 0.00 0.00 34 1009.0
20260510162656 26 135 1.6 3.2 0.00 0.00 0.00 33 1009.0
20260510162155 26 113 1.6 3.2 0.00 0.00 0.00 34 1009.0
20260510161655 27 113 4.8 6.4 0.00 0.00 0.00 34 1009.0
20260510161156 27 113 1.6 3.2 0.00 0.00 0.00 36 1009.0
20260510160657 27 135 0.0 3.2 0.00 0.00 0.00 39 1009.0
20260510160156 26 113 3.2 4.8 0.00 0.00 0.00 34 1009.0
20260510155655 26 113 1.6 3.2 0.00 0.00 0.00 34 1009.0
20260510155154 26 113 6.4 8.0 0.00 0.00 0.00 35 1009.0
20260510154654 26 113 1.6 1.6 0.00 0.00 0.00 42 1009.0
20260510154154 26 113 1.6 3.2 0.00 0.00 0.00 38 1010.0
20260510153656 26 113 4.8 4.8 0.00 0.00 0.00 38 1009.0
20260510153155 26 135 1.6 3.2 0.00 0.00 0.00 36 1009.0
20260510152657 26 113 3.2 3.2 0.00 0.00 0.00 39 1009.0
20260510152155 26 113 4.8 6.4 0.00 0.00 0.00 38 1009.0
20260510151655 26 135 0.0 1.6 0.00 0.00 0.00 41 1009.0
20260510151155 25 113 3.2 3.2 0.00 0.00 0.00 40 1009.0
20260510150654 25 113 3.2 4.8 0.00 0.00 0.00 41 1009.0
20260510150154 25 113 3.2 4.8 0.00 0.00 0.00 40 1010.0
20260510145657 25 113 1.6 1.6 0.00 0.00 0.00 43 1010.0
20260510145155 25 113 1.6 3.2 0.00 0.00 0.00 42 1010.0
20260510144654 26 113 3.2 4.8 0.00 0.00 0.00 41 1010.0
20260510144154 25 135 1.6 3.2 0.00 0.00 0.00 48 1010.0
20260510143655 24 113 3.2 3.2 0.00 0.00 0.00 45 1010.0
20260510143155 25 113 4.8 6.4 0.00 0.00 0.00 44 1009.0
20260510142655 25 113 0.0 1.6 0.00 0.00 0.00 50 1010.0
20260510142155 24 113 0.0 1.6 0.00 0.00 0.00 48 1010.0
20260510141655 23 113 3.2 3.2 0.00 0.00 0.00 48 1009.0
20260510141155 23 135 0.0 1.6 0.00 0.00 0.00 56 1009.0
20260510140654 23 113 1.6 3.2 0.00 0.00 0.00 56 1009.0
20260510140155 22 135 1.6 1.6 0.00 0.00 0.00 61 1009.0
20260510135654 22 135 0.0 0.0 0.00 0.00 0.00 65 1010.0
20260510135155 21 113 0.0 0.0 0.00 0.00 0.00 62 1009.0
20260510134655 21 135 0.0 0.0 0.00 0.00 0.00 69 1009.0
20260510134154 20 135 0.0 0.0 0.00 0.00 0.00 70 1009.0
20260510133657 20 135 0.0 0.0 0.00 0.00 0.00 75 1009.0
20260510133155 20 135 0.0 0.0 0.00 0.00 0.00 77 1010.0
20260510132655 19 135 0.0 0.0 0.00 0.00 0.00 80 1010.0
20260510132155 19 135 0.0 0.0 0.00 0.00 0.00 77 1009.0
20260510131655 18 135 0.0 0.0 0.00 0.00 0.00 79 1009.0
20260510131158 18 135 0.0 0.0 0.00 0.00 0.00 80 1010.0
20260510130656 18 135 0.0 0.0 0.00 0.00 0.00 83 1009.0
20260510130155 18 135 0.0 0.0 0.00 0.00 0.00 84 1009.0
20260510125655 18 135 0.0 0.0 0.00 0.00 0.00 84 1010.0
20260510125155 18 135 0.0 0.0 0.00 0.00 0.00 85 1009.0
20260510124655 18 135 0.0 0.0 0.00 0.00 0.00 84 1009.0
20260510124155 17 135 0.0 0.0 0.00 0.00 0.00 85 1009.0
20260510123654 17 135 0.0 0.0 0.00 0.00 0.00 86 1009.0
20260510123155 17 135 0.0 0.0 0.00 0.00 0.00 87 1009.0
20260510122657 17 135 0.0 0.0 0.00 0.00 0.00 89 1009.0
20260510122157 16 135 0.0 0.0 0.00 0.00 0.00 89 1009.0
20260510121655 16 135 0.0 0.0 0.00 0.00 0.00 90 1009.0
20260510121154 16 135 0.0 0.0 0.00 0.00 0.00 91 1009.0
20260510120656 16 135 0.0 0.0 0.00 0.00 0.00 91 1008.0
20260510120156 15 135 0.0 0.0 0.00 0.00 0.00 91 1008.0
20260510115654 15 135 0.0 0.0 0.00 0.00 0.00 91 1008.0
20260510115154 14 135 0.0 0.0 0.00 0.00 0.00 90 1008.0
20260510114654 14 135 0.0 0.0 0.00 0.00 0.00 91 1008.0
20260510114155 13 135 0.0 0.0 0.00 0.00 0.00 92 1008.0
20260510113656 13 135 0.0 0.0 0.00 0.00 0.00 93 1008.0
20260510113155 13 135 0.0 0.0 0.00 0.00 0.00 93 1008.0
20260510112656 13 135 0.0 0.0 0.00 0.00 0.00 93 1008.0
20260510112155 13 135 0.0 0.0 0.00 0.00 0.00 94 1008.0
20260510111656 13 135 0.0 0.0 0.00 0.00 0.00 94 1008.0
20260510111155 12 135 0.0 0.0 0.00 0.00 0.00 94 1008.0
20260510110656 12 135 0.0 0.0 0.00 0.00 0.00 94 1008.0
20260510110156 12 135 0.0 0.0 0.00 0.00 0.00 94 1007.0
20260510105654 12 135 0.0 0.0 0.00 0.00 0.00 94 1007.0
20260510105155 12 135 0.0 0.0 0.00 0.00 0.00 93 1007.0
20260510104655 12 135 0.0 0.0 0.00 0.00 0.00 93 1007.0
20260510104155 12 135 0.0 0.0 0.00 0.00 0.00 93 1007.0
20260510103654 12 135 0.0 0.0 0.00 0.00 0.00 93 1007.0
20260510103155 12 135 0.0 0.0 0.00 0.00 0.00 93 1007.0
20260510102656 12 135 0.0 0.0 0.00 0.00 0.00 93 1007.0
20260510102155 12 135 0.0 0.0 0.00 0.00 0.00 93 1007.0
20260510101655 12 135 0.0 0.0 0.00 0.00 0.00 93 1007.0
20260510101155 12 135 0.0 0.0 0.00 0.00 0.00 93 1007.0
20260510100655 12 135 0.0 0.0 0.00 0.00 0.00 93 1007.0
20260510100155 12 135 0.0 0.0 0.00 0.00 0.00 93 1007.0
20260510095655 12 135 0.0 0.0 0.00 0.00 0.00 93 1007.0
20260510095154 13 135 0.0 0.0 0.00 0.00 0.00 94 1007.0
20260510094656 13 135 0.0 0.0 0.00 0.00 0.00 94 1007.0
20260510094155 12 135 0.0 0.0 0.00 0.00 0.00 93 1007.0
20260510093654 12 135 0.0 0.0 0.00 0.00 0.00 93 1007.0
20260510093156 12 135 0.0 0.0 0.00 0.00 0.00 93 1007.0
20260510092655 12 135 0.0 0.0 0.00 0.00 0.00 93 1007.0
20260510092155 12 135 0.0 0.0 0.00 0.00 0.00 93 1006.0
20260510091655 13 135 0.0 0.0 0.00 0.00 0.00 93 1007.0
20260510091154 12 135 0.0 0.0 0.00 0.00 0.00 93 1007.0
20260510090654 13 135 0.0 0.0 0.00 0.00 0.00 93 1006.0
20260510090154 13 135 0.0 0.0 0.00 0.00 0.00 93 1006.0
20260510085654 13 135 0.0 0.0 0.00 0.00 0.00 93 1006.0
20260510085154 13 135 0.0 0.0 0.00 0.00 0.00 93 1006.0
20260510084655 13 135 0.0 0.0 0.00 0.00 0.00 93 1006.0
20260510084154 13 135 0.0 0.0 0.00 0.00 0.00 93 1006.0
20260510083655 13 135 0.0 0.0 0.00 0.00 0.00 93 1006.0
20260510083154 13 135 0.0 0.0 0.00 0.00 0.00 93 1006.0
20260510082654 13 135 0.0 0.0 0.00 0.00 0.00 93 1006.0
20260510082155 13 135 0.0 0.0 0.00 0.00 0.00 93 1006.0
20260510081655 13 135 0.0 0.0 0.00 0.00 0.00 93 1006.0
20260510081154 13 135 0.0 0.0 0.00 0.00 0.00 93 1006.0
20260510080655 13 135 0.0 0.0 0.00 0.00 0.00 93 1006.0
20260510080155 13 135 0.0 0.0 0.00 0.00 0.00 93 1006.0
20260510075654 13 135 0.0 0.0 0.00 0.00 0.00 93 1006.0
20260510075155 13 135 0.0 0.0 0.00 0.00 0.00 93 1006.0
20260510074654 13 135 0.0 0.0 0.00 0.00 0.00 93 1006.0
20260510074155 13 135 0.0 0.0 0.00 0.00 0.00 93 1006.0
20260510073655 13 135 0.0 0.0 0.00 0.00 0.00 93 1006.0
20260510073154 13 135 0.0 0.0 0.00 0.00 0.00 92 1006.0
20260510072654 13 135 0.0 0.0 0.00 0.00 0.00 92 1006.0
20260510072154 13 135 0.0 0.0 0.00 0.00 0.00 92 1006.0
20260510071654 13 135 0.0 0.0 0.00 0.00 0.00 92 1006.0
20260510071155 13 135 0.0 0.0 0.00 0.00 0.00 92 1006.0
20260510070657 13 135 0.0 0.0 0.00 0.00 0.00 92 1006.0
20260510070156 13 135 0.0 0.0 0.00 0.00 0.00 92 1006.0
20260510065655 13 135 0.0 0.0 0.00 0.00 0.00 92 1006.0
20260510065154 13 135 0.0 0.0 0.00 0.00 0.00 92 1006.0
20260510064655 13 135 0.0 0.0 0.00 0.00 0.00 92 1006.0
20260510064159 14 135 0.0 0.0 0.00 0.00 0.00 92 1006.0
20260510063655 14 135 0.0 0.0 0.00 0.00 0.00 92 1006.0
20260510063155 14 135 0.0 0.0 0.00 0.00 0.00 92 1006.0
20260510062654 14 135 0.0 0.0 0.00 0.00 0.00 92 1006.0
20260510062155 14 135 0.0 0.0 0.00 0.00 0.00 92 1006.0
20260510061654 14 135 0.0 0.0 0.00 0.00 0.00 92 1006.0
20260510061156 15 135 0.0 0.0 0.00 0.00 0.00 92 1006.0
20260510060655 15 135 0.0 0.0 0.00 0.00 0.00 92 1006.0
20260510060154 15 135 0.0 0.0 0.00 0.00 0.00 92 1006.0
20260510055654 15 135 0.0 0.0 0.00 0.00 0.00 92 1006.0
20260510055154 15 135 0.0 0.0 0.00 0.00 0.00 92 1006.0
20260510054655 15 135 0.0 0.0 0.00 0.00 0.00 92 1006.0
20260510054154 15 135 0.0 0.0 0.00 0.00 0.00 92 1006.0
20260510053655 15 135 0.0 0.0 0.00 0.00 0.00 92 1006.0
20260510053154 15 135 0.0 0.0 0.00 0.00 0.00 92 1006.0
20260510052654 15 135 0.0 0.0 0.00 0.00 0.00 92 1006.0
20260510052154 15 135 0.0 0.0 0.00 0.00 0.00 92 1006.0
20260510051655 15 135 0.0 0.0 0.00 0.00 0.00 92 1006.0
20260510051154 15 135 0.0 0.0 0.00 0.00 0.00 92 1006.0
20260510050655 15 135 0.0 0.0 0.00 0.00 0.00 92 1006.0
20260510050155 15 135 0.0 0.0 0.00 0.00 0.00 92 1006.0
20260510045654 15 135 0.0 0.0 0.00 0.00 0.00 92 1006.0
20260510045155 15 135 0.0 0.0 0.00 0.00 0.00 92 1006.0
20260510044655 15 135 0.0 0.0 0.00 0.00 0.00 92 1006.0
20260510044154 15 135 0.0 0.0 0.00 0.00 0.00 92 1006.0
20260510043654 15 135 0.0 0.0 0.00 0.00 0.00 92 1006.0
20260510043154 15 135 0.0 0.0 0.00 0.00 0.00 91 1006.0
20260510042654 15 135 0.0 0.0 0.00 0.00 0.00 91 1006.0
20260510042154 15 135 0.0 0.0 0.00 0.00 0.00 91 1006.0
20260510041655 15 135 0.0 0.0 0.00 0.00 0.00 91 1006.0
20260510041155 15 135 0.0 0.0 0.00 0.00 0.00 91 1006.0
20260510040659 15 135 0.0 0.0 0.00 0.00 0.00 91 1006.0
20260510040155 15 135 0.0 0.0 0.00 0.00 0.00 91 1006.0
20260510035654 15 135 0.0 0.0 0.00 0.00 0.00 91 1006.0
20260510035154 15 135 0.0 0.0 0.00 0.00 0.00 91 1006.0
20260510034655 15 135 0.0 0.0 0.00 0.00 0.00 91 1006.0
20260510034155 15 135 0.0 0.0 0.00 0.00 0.00 91 1006.0
20260510033656 15 135 0.0 0.0 0.00 0.00 0.00 91 1006.0
20260510033154 15 135 0.0 0.0 0.00 0.00 0.00 90 1006.0
20260510032655 15 135 0.0 0.0 0.00 0.00 0.00 90 1006.0
20260510032154 15 135 0.0 0.0 0.00 0.00 0.00 90 1006.0
20260510031656 15 135 0.0 0.0 0.00 0.00 0.00 90 1006.0
20260510031155 15 135 0.0 0.0 0.00 0.00 0.00 90 1006.0
20260510030656 15 135 0.0 0.0 0.00 0.00 0.00 91 1006.0
20260510030155 15 135 0.0 0.0 0.00 0.00 0.00 90 1006.0
20260510025656 15 135 0.0 0.0 0.00 0.00 0.00 90 1006.0
20260510025154 15 135 0.0 0.0 0.00 0.00 0.00 90 1006.0
20260510024655 15 135 0.0 0.0 0.00 0.00 0.00 89 1006.0
20260510024154 15 135 0.0 0.0 0.00 0.00 0.00 89 1006.0
20260510023655 16 135 0.0 0.0 0.00 0.00 0.00 89 1006.0
20260510023157 16 135 0.0 0.0 0.00 0.00 0.00 89 1006.0
20260510022655 16 135 0.0 0.0 0.00 0.00 0.00 88 1006.0
20260510022156 16 135 0.0 0.0 0.00 0.00 0.00 88 1006.0
20260510021655 16 135 0.0 0.0 0.00 0.00 0.00 88 1006.0
20260510021155 16 135 0.0 0.0 0.00 0.00 0.00 88 1006.0
20260510020655 16 135 0.0 0.0 0.00 0.00 0.00 88 1006.0
20260510020154 16 135 0.0 0.0 0.00 0.00 0.00 87 1006.0
20260510015656 16 135 0.0 0.0 0.00 0.00 0.00 87 1006.0
20260510015155 16 135 0.0 0.0 0.00 0.00 0.00 87 1006.0
20260510014654 16 135 0.0 0.0 0.00 0.00 0.00 87 1005.0
20260510014154 17 135 0.0 0.0 0.00 0.00 0.00 86 1006.0
20260510013654 17 135 0.0 0.0 0.00 0.00 0.00 86 1005.0
20260510013154 17 135 0.0 0.0 0.00 0.00 0.00 85 1005.0
20260510012654 17 135 0.0 0.0 0.00 0.00 0.00 85 1005.0
20260510012154 17 135 0.0 0.0 0.00 0.00 0.00 84 1005.0
20260510011654 17 135 0.0 0.0 0.00 0.00 0.00 84 1005.0
20260510011155 17 135 0.0 0.0 0.00 0.00 0.00 84 1005.0
20260510010654 17 135 0.0 0.0 0.00 0.00 0.00 83 1005.0
20260510010156 17 135 0.0 0.0 0.00 0.00 0.00 83 1005.0
20260510005655 17 135 0.0 0.0 0.00 0.00 0.00 83 1005.0
20260510005155 18 135 0.0 0.0 0.00 0.00 0.00 82 1005.0
20260510004655 18 135 0.0 0.0 0.00 0.00 0.00 83 1004.0
20260510004155 18 135 0.0 0.0 0.00 0.00 0.00 82 1004.0
20260510003654 18 135 1.6 1.6 0.00 0.00 0.00 82 1004.0
20260510003154 18 135 0.0 0.0 0.00 0.00 0.00 81 1004.0
20260510002654 18 135 0.0 0.0 0.00 0.00 0.00 80 1004.0
20260510002155 19 135 0.0 0.0 0.00 0.00 0.00 79 1004.0
20260510001654 19 135 0.0 0.0 0.00 0.00 0.00 78 1004.0
20260510001154 20 135 0.0 0.0 0.00 0.00 0.00 77 1004.0
20260510000654 20 135 0.0 0.0 0.00 0.00 0.00 77 1004.0
20260510000154 20 135 0.0 0.0 0.00 0.00 0.00 75 1004.0
20260509235654 20 135 0.0 0.0 0.00 0.00 0.00 74 1004.0
20260509235155 20 135 0.0 0.0 0.00 0.00 0.00 74 1004.0
20260509234655 20 135 0.0 1.6 0.00 0.00 0.00 74 1004.0
20260509234154 20 135 0.0 0.0 0.00 0.00 0.00 74 1004.0
20260509233655 20 135 0.0 0.0 0.00 0.00 0.00 74 1004.0
20260509233155 20 135 0.0 0.0 0.00 0.00 0.00 73 1004.0
20260509232654 21 135 0.0 0.0 0.00 0.00 0.00 73 1004.0
20260509232156 21 135 0.0 1.6 0.00 0.00 0.00 72 1004.0
20260509231655 21 135 0.0 1.6 0.00 0.00 0.00 72 1004.0
20260509231155 21 135 1.6 1.6 0.00 0.00 0.00 72 1004.0
20260509230655 21 135 0.0 0.0 0.00 0.00 0.00 71 1004.0
20260509230155 21 135 1.6 3.2 0.00 0.00 0.00 70 1003.0
20260509225656 21 135 4.8 6.4 0.00 0.00 0.00 69 1004.0
20260509225154 21 135 1.6 3.2 0.00 0.00 0.00 69 1004.0
20260509224655 21 135 0.0 1.6 0.00 0.00 0.00 69 1003.0
20260509224155 21 135 0.0 1.6 0.00 0.00 0.00 68 1004.0
20260509223655 21 135 0.0 0.0 0.00 0.00 0.00 69 1003.0
20260509223155 21 135 0.0 1.6 0.00 0.00 0.00 68 1003.0
20260509222655 21 135 0.0 0.0 0.00 0.00 0.00 68 1003.0
20260509222156 21 135 3.2 3.2 0.00 0.00 0.00 68 1003.0
20260509221655 22 135 3.2 3.2 0.00 0.00 0.00 67 1003.0
20260509221154 22 135 3.2 3.2 0.00 0.00 0.00 67 1004.0
20260509220655 22 135 3.2 3.2 0.00 0.00 0.00 66 1004.0
20260509220156 22 135 1.6 3.2 0.00 0.00 0.00 66 1004.0
20260509215655 22 135 1.6 3.2 0.00 0.00 0.00 66 1003.0
20260509215155 22 135 3.2 3.2 0.00 0.00 0.00 65 1003.0
20260509214656 22 135 0.0 1.6 0.00 0.00 0.00 66 1003.0
20260509214155 22 135 3.2 4.8 0.00 0.00 0.00 66 1003.0
20260509213654 22 135 3.2 4.8 0.00 0.00 0.00 67 1003.0
20260509213155 22 135 1.6 3.2 0.00 0.00 0.00 67 1003.0
20260509212657 22 135 1.6 3.2 0.00 0.00 0.00 68 1003.0
20260509212154 22 135 1.6 3.2 0.00 0.00 0.00 67 1004.0
20260509211654 22 135 3.2 4.8 0.00 0.00 0.00 67 1003.0
20260509211154 22 135 1.6 3.2 0.00 0.00 0.00 67 1003.0
20260509210656 22 135 3.2 3.2 0.00 0.00 0.00 67 1003.0
20260509210156 22 135 3.2 4.8 0.00 0.00 0.00 67 1003.0
20260509205654 22 135 1.6 3.2 0.00 0.00 0.00 67 1003.0
20260509205156 21 135 4.8 4.8 0.00 0.00 0.00 67 1003.0
20260509204657 21 135 1.6 3.2 0.00 0.00 0.00 66 1003.0
20260509204156 21 135 3.2 3.2 0.00 0.00 0.00 67 1004.0
20260509203656 22 135 0.0 1.6 0.00 0.00 0.00 66 1004.0
20260509203155 21 135 0.0 0.0 0.00 0.00 0.00 69 1003.0
20260509202654 21 135 4.8 4.8 0.00 0.00 0.00 66 1003.0
20260509202154 22 135 3.2 4.8 0.00 0.00 0.00 66 1003.0
20260509201654 22 135 1.6 1.6 0.00 0.00 0.00 67 1003.0
20260509201156 21 135 3.2 3.2 0.00 0.00 0.00 68 1003.0
20260509200655 21 135 1.6 3.2 0.00 0.00 0.00 67 1003.0
20260509200154 21 135 3.2 3.2 0.00 0.00 0.00 69 1004.0
20260509195654 21 135 4.8 6.4 0.00 0.00 0.00 66 1004.0
20260509195155 21 135 3.2 6.4 0.00 0.00 0.00 67 1004.0
20260509194655 21 135 1.6 3.2 0.00 0.00 0.00 67 1004.0
20260509194155 21 135 0.0 1.6 0.00 0.00 0.00 70 1004.0
20260509193654 21 135 1.6 3.2 0.00 0.00 0.00 69 1004.0
20260509193155 21 135 3.2 4.8 0.00 0.00 0.00 70 1004.0
20260509192655 21 135 3.2 3.2 0.00 0.00 0.00 68 1004.0
20260509192154 21 135 6.4 8.0 0.00 0.00 0.00 68 1004.0
20260509191655 21 135 4.8 6.4 0.00 0.00 0.00 69 1004.0
20260509191156 21 135 1.6 3.2 0.00 0.00 0.00 68 1004.0
20260509190654 20 135 1.6 3.2 0.00 0.00 0.00 68 1004.0
20260509190155 20 135 3.2 3.2 0.00 0.00 0.00 68 1004.0
20260509185655 20 135 3.2 3.2 0.00 0.00 0.00 68 1004.0
20260509185154 20 135 3.2 3.2 0.00 0.00 0.00 68 1004.0
20260509184655 20 135 0.0 3.2 0.00 0.00 0.00 70 1004.0